Location: Killam
(52.7910°N, 111.8608°W)
Time: 11:09:15
(UTC+00:00)

SR - Pass Details

Date: 22 February 2026
Orbit: 573 x 848 km, 66.7° (Epoch: 7 March)

Event Time Altitude Azimuth Distance (km) Brightness Sun altitude
Exits shadow 10:58:29 30° 71° (ENE) 1,114 ? -31.8°
Drops below altitude 10° 11:01:07 10° 49° (NE) 2,018 ? -31.5°
Sets 11:03:34 0° 43° (NE) 2,974 ? -31.1°
